AMC-2 (GE-2)            
1 24713U 97002A   19265.48905729 -.00000218  00000-0  00000+0 0  9993
2 24713   5.8601  61.7494 0004825 125.8599 264.6760  1.00273267 33665
NAHUEL 1A               
1 24714U 97002B   19264.71415273 -.00000209  00000-0  00000+0 0  9999
2 24714   8.9337  44.0743 0004180 151.2798  52.0919  0.99389868 82633